This is the latest recevied weather packets stored in our database for station/object KJ6BBX. If no packets are shown the sender has not sent any weather packets the latest 10 day(s).
| Time | Temp. | Humidity | Pressure | Rain* | Wind** | Luminosity | Snow |
|---|---|---|---|---|---|---|---|
| 1777872014 | 13.33° C | 81% | 1006.7 hPa | 0.25 mm | - | 0 W/m² | - |
| 1777871114 | 13.89° C | 80% | 1007 hPa | 0.25 mm | - | 0 W/m² | - |
| 1777870214 | 14.44° C | 79% | 1006.9 hPa | 0.25 mm | - | 0 W/m² | - |
| 1777869314 | 14.44° C | 78% | 1006.9 hPa | 0.25 mm | - | 0 W/m² | - |
| 1777868414 | 14.44° C | 78% | 1006.9 hPa | 0.25 mm | - | 0 W/m² | - |
| 1777867514 | 15° C | 77% | 1006.6 hPa | 0.25 mm | - | 0 W/m² | - |
| 1777866614 | 15° C | 76% | 1006.4 hPa | 0.25 mm | - | 0 W/m² | - |
| 1777865714 | 15° C | 75% | 1006.4 hPa | 0.25 mm | - | 0 W/m² | - |
| 1777864814 | 15° C | 74% | 1006 hPa | 0.25 mm | - | 0 W/m² | - |
| 1777863914 | 15° C | 75% | 1005.8 hPa | 0.25 mm | - | 0 W/m² | - |
| 1777863014 | 15° C | 72% | 1006 hPa | 0.25 mm | - | 0 W/m² | - |
| 1777862115 | 15° C | 71% | 1005.9 hPa | 0.25 mm | - | 0 W/m² | - |
| 1777861214 | 15.56° C | 71% | 1005.6 hPa | 0.25 mm | - | 4 W/m² | - |
| 1777860314 | 15.56° C | 71% | 1005.4 hPa | 0.25 mm | - | 10 W/m² | - |
| 1777859414 | 16.11° C | 71% | 1005.4 hPa | 0.25 mm | - | 19 W/m² | - |
| 1777858514 | 16.67° C | 70% | 1005 hPa | 0.25 mm | - | 35 W/m² | - |
| 1777857614 | 17.22° C | 68% | 1005.1 hPa | 0.25 mm | - | 42 W/m² | - |
| 1777856714 | 17.22° C | 67% | 1005 hPa | 0.25 mm | - | 49 W/m² | - |
| 1777855814 | 18.33° C | 65% | 1005 hPa | 0.25 mm | - | 76 W/m² | - |
| 1777854914 | 18.89° C | 64% | 1004.8 hPa | 0.25 mm | - | 124 W/m² | - |
| 1777854014 | 18.33° C | 64% | 1004.8 hPa | 0.25 mm | - | 108 W/m² | - |
| 1777853113 | 18.33° C | 66% | 1004.7 hPa | 0.25 mm | - | 193 W/m² | - |
| 1777852214 | 17.78° C | 67% | 1004.6 hPa | 0.25 mm | - | 117 W/m² | - |
| 1777851314 | 17.78° C | 66% | 1004.8 hPa | 0.25 mm | - | 98 W/m² | - |
| 1777850414 | 18.33° C | 65% | 1005 hPa | 0.25 mm | - | 110 W/m² | - |
* Rain since midnight (hover to see other rain measurements)
** Current wind speed in m/s (hover to see current wind gust speed)